Bigfork, MN

10:45 AM CDT on March 27, 2017 (GMT -0500)
Bigfork Municipal

Weather History for KFOZ - September, 2012

Change the Weather History Date:

Wednesday, September 26, 2012

  Actual Average (KGPZ) Record (KGPZ)
Temperature  
Mean Temperature 43 °F -  
Max Temperature 60 °F 63 °F 84 °F (1920)
Min Temperature 26 °F 38 °F 15 °F (1939)
Degree Days  
Heating Degree Days 22    
Moisture  
Dew Point 30 °F    
Average Humidity 69    
Maximum Humidity 93    
Minimum Humidity 29    
Precipitation  
Precipitation 0.00 in - - ()
Sea Level Pressure  
Sea Level Pressure 30.13 in    
Wind  
Wind Speed 1 mph (NNW)    
Max Wind Speed 5 mph    
Max Gust Speed -    
Visibility 10 miles    
Events      
Averages and records for this station are not official NWS values.
T = Trace of Precipitation, MM = Missing Value Source: NWS Daily Summary

Daily Weather History Graph

Daily Weather History Graph

Search for Another Location

Airport or City:

Trip Planner

Search our weather history database for the weather conditions in past years. The results will help you decide how hot, cold, wet, or windy it might be!

Date:

Astronomy

Sep. 26, 2012 Rise Set
Actual Time 7:07 AM CDT 7:03 PM CDT
Civil Twilight 6:36 AM CDT 7:33 PM CDT
Nautical Twilight 6:00 AM CDT 8:09 PM CDT
Astronomical Twilight 5:23 AM CDT 8:46 PM CDT
Moon 5:13 PM CDT (9/26) 3:21 AM CDT (9/26)
Length of Visible Light 12h 57m
Length of Day
11h 55m
Waxing Gibbous, 88% of the Moon is Illuminated
Sep 26
Waxing Gibbous
Sep 29
Full
Oct 8
Last Quarter
Oct 15
New
Oct 21
First Quarter

Hourly Weather History & Observations

Time (CDT) Temp. Windchill Dew Point Humidity Pressure Visibility Wind Dir Wind Speed Gust Speed Precip Events Conditions
12:33 AM 28.4 °F - 26.6 °F 93% 30.02 in 10.0 mi Calm Calm - N/A   Clear
12:53 AM 28.4 °F - 26.6 °F 93% 30.03 in 10.0 mi Calm Calm - N/A   Clear
1:13 AM 26.6 °F - 24.8 °F 93% 30.03 in 10.0 mi Calm Calm - N/A   Clear
1:33 AM 28.4 °F - 26.6 °F 93% 30.03 in 10.0 mi Calm Calm - N/A   Clear
1:53 AM 28.4 °F - 26.6 °F 93% 30.03 in 10.0 mi Calm Calm - N/A   Clear
2:13 AM 26.6 °F - 24.8 °F 93% 30.04 in 10.0 mi Calm Calm - N/A   Clear
2:33 AM 26.6 °F - 24.8 °F 93% 30.03 in 10.0 mi Calm Calm - N/A   Clear
2:53 AM 26.6 °F - 24.8 °F 93% 30.03 in 10.0 mi Calm Calm - N/A   Clear
3:13 AM 26.6 °F - 24.8 °F 93% 30.04 in 10.0 mi Calm Calm - N/A   Scattered Clouds
3:33 AM 28.4 °F - 26.6 °F 93% 30.04 in 10.0 mi Calm Calm - N/A   Mostly Cloudy
3:53 AM 28.4 °F - 26.6 °F 93% 30.04 in 10.0 mi Calm Calm - N/A   Overcast
4:13 AM 28.4 °F - 26.6 °F 93% 30.04 in 10.0 mi Calm Calm - N/A   Mostly Cloudy
4:33 AM 28.4 °F - 26.6 °F 93% 30.05 in 10.0 mi Calm Calm - N/A   Mostly Cloudy
4:53 AM 30.2 °F - 28.4 °F 93% 30.05 in 10.0 mi Calm Calm - N/A   Overcast
5:13 AM 30.2 °F - 28.4 °F 93% 30.05 in 10.0 mi Calm Calm - N/A   Overcast
5:33 AM 30.2 °F - 28.4 °F 93% 30.07 in 10.0 mi Calm Calm - N/A   Mostly Cloudy
5:53 AM 30.2 °F - 28.4 °F 93% 30.08 in 10.0 mi Calm Calm - N/A   Mostly Cloudy
6:13 AM 30.2 °F - 28.4 °F 93% 30.09 in 10.0 mi Calm Calm - N/A   Overcast
6:33 AM 32.0 °F - 28.4 °F 87% 30.10 in 10.0 mi Calm Calm - N/A   Overcast
6:53 AM 33.8 °F - 30.2 °F 87% 30.11 in 10.0 mi Calm Calm - N/A   Overcast
7:13 AM 32.0 °F - 30.2 °F 93% 30.11 in 10.0 mi Calm Calm - N/A   Overcast
7:33 AM 33.8 °F - 30.2 °F 87% 30.11 in 10.0 mi Calm Calm - N/A   Overcast
7:53 AM 33.8 °F - 30.2 °F 87% 30.12 in 10.0 mi Calm Calm - N/A   Overcast
8:13 AM 35.6 °F - 33.8 °F 93% 30.13 in 10.0 mi Calm Calm - N/A   Mostly Cloudy
8:33 AM 37.4 °F - 35.6 °F 93% 30.13 in 10.0 mi Calm Calm - N/A   Mostly Cloudy
8:53 AM 37.4 °F - 35.6 °F 93% 30.13 in 10.0 mi Calm Calm - N/A   Scattered Clouds
9:13 AM 39.2 °F - 35.6 °F 87% 30.14 in 10.0 mi Calm Calm - N/A   Scattered Clouds
9:33 AM 41.0 °F - 35.6 °F 81% 30.14 in 10.0 mi Calm Calm - N/A   Mostly Cloudy
9:53 AM 44.6 °F 43.1 °F 37.4 °F 76% 30.14 in 10.0 mi North 3.5 mph - N/A   Scattered Clouds
10:13 AM 46.4 °F - 37.4 °F 71% 30.15 in 10.0 mi Calm Calm - N/A   Clear
10:33 AM 48.2 °F - 37.4 °F 66% 30.15 in 10.0 mi North 3.5 mph - N/A   Clear
10:53 AM 51.8 °F - 37.4 °F 58% 30.16 in 10.0 mi Calm Calm - N/A   Clear
11:13 AM 51.8 °F - 35.6 °F 54% 30.16 in 10.0 mi NNE 4.6 mph - N/A   Scattered Clouds
11:33 AM 53.6 °F - 35.6 °F 51% 30.17 in 10.0 mi Calm Calm - N/A   Scattered Clouds
11:53 AM 51.8 °F - 33.8 °F 50% 30.17 in 10.0 mi NW 4.6 mph - N/A   Scattered Clouds
12:13 PM 53.6 °F - 33.8 °F 47% 30.17 in 10.0 mi North 3.5 mph - N/A   Scattered Clouds
12:33 PM 55.4 °F - 33.8 °F 44% 30.17 in 10.0 mi SSE 3.5 mph - N/A   Clear
12:53 PM 55.4 °F - 32.0 °F 41% 30.16 in 10.0 mi North 3.5 mph - N/A   Clear
1:13 PM 55.4 °F - 33.8 °F 44% 30.16 in 10.0 mi WNW 3.5 mph - N/A   Clear
1:33 PM 57.2 °F - 30.2 °F 36% 30.16 in 10.0 mi WSW 4.6 mph - N/A   Clear
1:53 PM 57.2 °F - 30.2 °F 36% 30.16 in 10.0 mi NE 3.5 mph - N/A   Clear
2:13 PM 57.2 °F - 30.2 °F 36% 30.15 in 10.0 mi North 3.5 mph - N/A   Clear
2:33 PM 57.2 °F - 30.2 °F 36% 30.15 in 10.0 mi Calm Calm - N/A   Clear
2:53 PM 57.2 °F - 30.2 °F 36% 30.15 in 10.0 mi Calm Calm - N/A   Clear
3:14 PM 57.2 °F - 30.2 °F 36% 30.15 in 10.0 mi Calm Calm - N/A   Clear
3:33 PM 59.0 °F - 30.2 °F 34% 30.14 in 10.0 mi NW 4.6 mph - N/A   Clear
3:53 PM 59.0 °F - 28.4 °F 31% 30.14 in 10.0 mi WSW 3.5 mph - N/A   Clear
4:13 PM 59.0 °F - 28.4 °F 31% 30.15 in 10.0 mi NNE 3.5 mph - N/A   Clear
4:33 PM 60.8 °F - 28.4 °F 29% 30.15 in 10.0 mi West 3.5 mph - N/A   Clear
4:53 PM 60.8 °F - 28.4 °F 29% 30.15 in 10.0 mi North 3.5 mph - N/A   Clear
5:13 PM 60.8 °F - 28.4 °F 29% 30.16 in 10.0 mi North 4.6 mph - N/A   Clear
5:33 PM 59.0 °F - 28.4 °F 31% 30.16 in 10.0 mi WNW 3.5 mph - N/A   Clear
5:53 PM 59.0 °F - 28.4 °F 31% 30.16 in 10.0 mi Calm Calm - N/A   Clear
6:13 PM 57.2 °F - 28.4 °F 33% 30.16 in 10.0 mi Calm Calm - N/A   Clear
6:33 PM 55.4 °F - 28.4 °F 36% 30.17 in 10.0 mi Calm Calm - N/A   Clear
6:53 PM 51.8 °F - 30.2 °F 44% 30.17 in 10.0 mi Calm Calm - N/A   Clear
7:33 PM 44.6 °F - 33.8 °F 66% 30.18 in 10.0 mi Calm Calm - N/A   Clear
7:53 PM 42.8 °F - 33.8 °F 70% 30.18 in 10.0 mi Calm Calm - N/A   Clear
8:13 PM 39.2 °F - 32.0 °F 75% 30.18 in 10.0 mi Calm Calm - N/A   Clear
8:33 PM 39.2 °F - 30.2 °F 70% 30.19 in 10.0 mi Calm Calm - N/A   Clear
8:53 PM 39.2 °F - 30.2 °F 70% 30.18 in 10.0 mi Calm Calm - N/A   Clear
9:13 PM 37.4 °F - 30.2 °F 75% 30.19 in 10.0 mi Calm Calm - N/A   Clear
9:33 PM 35.6 °F - 30.2 °F 81% 30.20 in 10.0 mi Calm Calm - N/A   Clear
9:53 PM 33.8 °F - 28.4 °F 81% 30.20 in 10.0 mi Calm Calm - N/A   Clear
10:13 PM 33.8 °F - 28.4 °F 81% 30.20 in 10.0 mi Calm Calm - N/A   Clear
10:33 PM 32.0 °F - 28.4 °F 87% 30.20 in 10.0 mi Calm Calm - N/A   Clear
10:53 PM 30.2 °F - 28.4 °F 93% 30.21 in 10.0 mi Calm Calm - N/A   Clear
11:13 PM 30.2 °F - 26.6 °F 86% 30.21 in 10.0 mi Calm Calm - N/A   Clear
11:33 PM 30.2 °F - 26.6 °F 86% 30.21 in 10.0 mi Calm Calm - N/A   Clear
11:53 PM 30.2 °F - 28.4 °F 93% 30.21 in 10.0 mi Calm Calm - N/A   Clear